{"data":{"norad_id":56426,"epoch":"2026-05-24T23:20:39.187392Z","epoch_age_seconds":77546,"freshness":"FRESH","line1":"1 56426U 23061BE  26144.97267578 -.00000491  00000+0 -86406-5 0  9997","line2":"2 56426  43.0021 108.9489 0001103 251.6158 108.4573 15.26738190168620","mean_motion":15.2673819,"eccentricity":0.0001103,"inclination_deg":43.0021,"raan_deg":108.9489,"arg_perigee_deg":251.6158,"mean_anomaly_deg":108.4573,"bstar":-8.6406e-6,"rev_number":16862,"period_min":94.318725334302,"perigee_km":484.81386917028,"apogee_km":486.32800314099,"semimajor_km":6863.7079361556,"source":"CELESTRAK","updated_at":"2026-05-25T13:38:18.064799Z"}}